OneWeb SL0439

operational
NORAD ID: 51635 Int'l Des: 2022-012 Owner: ONEWEBN Country: UK Constellation: oneweb
LEOCIRCULARPOLARONEWEB_TYPE

关于 OneWeb SL0439

正在加载描述...

实时位置

正在加载3D地球...

即将过境

高度历史

Altitude vs Time

uPlot chart will show altitude changes over time

两行轨道根数

1 51635U 22012P 25260.89147697 .00000373 00000-0 10321-2 0 9995
2 51635 87.8742 90.5751 0001666 84.4737 275.6581 13.10374463173666
Epoch: Sep 17, 2025 • Age: 10 hours

当前状态

高度 1230.2 km
速度 7.25 km/s
星下点 56.16°N, 162.05°E
发射日期 Feb 10, 2022
运行时间 3.6 years
类型 internet

技术详情

分类 Payload
质量 148.00 kg
干质量 140.00 kg
总质量 148.00 kg
长度 1.30 m
直径 1.00 m
跨度 5.00 m
形状 Trapezoid+2 pan
制造商 ONEWUS
平台类型 ARROW
阶段状态 In Orbit
所有者/国家 ONEWEBN/UK

大型星座

Loading constellations...